Regional Weather Roundup
Issued by NWS

Home | Current Version | Previous Version | Graphics & Text | Print | Product List | Glossary On
Versions: 1 2 3 4 5 6 7 8 9 10 11 12 13 14 15 16 17 18 19 20 21 22 23 24 25 26 27 28 29 30 31 32 33 34 35 36 37 38 39 40 41 42 43 44 45 46 47 48 49 50
000
ASUS43 KOAX 281310
RWRNE

WEATHER ROUNDUP FOR NEBRASKA
NATIONAL WEATHER SERVICE OMAHA NE
700 AM CST FRI NOV 28 2014

NOTES: SATELLITE DATA IS BEING USED TO AUGMENT CLOUD COVER ABOVE
       12000 FEET.
       "FAIR" INDICATES FEW OR NO CLOUDS BELOW 12,000 FEET WITH NO
       SIGNIFICANT WEATHER AND/OR OBSTRUCTIONS TO VISIBILITY.

  * THESE STATIONS DO NOT REPORT WEATHER SUCH AS RAIN...SNOW OR FOG.

NEZ001>004-019>022-054>056-281400-
NEBRASKA PANHANDLE

CITY           SKY/WX    TMP DP  RH WIND       PRES   REMARKS
SCOTTSBLUFF    PTCLDY    50  26  39 W15       29.82F
ALLIANCE       PTCLDY    35  25  66 SW14      29.81F WCI  26
CHADRON        CLEAR    N/A N/A N/A W9        29.77F
KIMBALL        MOCLDY    44  20  37 W9        29.89F
SIDNEY         MOCLDY    42  26  53 W16       29.88F
$$

NEZ057>060-069>072-079>082-281400-
SOUTHWEST NEBRASKA

CITY           SKY/WX    TMP DP  RH WIND       PRES   REMARKS
NORTH PLATTE   PTCLDY    20  19  96 NW6       29.86F WCI  12
IMPERIAL       PTCLDY    33  23  66 SW9       29.89F WCI  25
LEXINGTON      PTCLDY    24  20  87 W7        29.86F WCI  15
MCCOOK         PTCLDY    32  24  72 SW9       29.89F WCI  24
OGALLALA       CLEAR     28  26  89 SW7       29.86F WCI  21
$$

NEZ005>010-023>029-035>040-094-281400-
NORTH CENTRAL NEBRASKA

CITY           SKY/WX    TMP DP  RH WIND       PRES   REMARKS
VALENTINE      CLEAR     29  26  89 SW6       29.76F WCI  23
AINSWORTH      CLEAR     33  27  80 S6        29.76F WCI  27
BROKEN BOW     PTCLDY    36  26  67 SW5       29.83F WCI  32
O`NEILL        PTCLDY    28  25  86 SW6       29.77F WCI  22
ORD            PTCLDY    19  15  84 CALM      29.81F
THEDFORD       CLEAR     35  28  75 SW3       29.80F
$$

NEZ041-046>049-061>064-073>077-083>087-281400-
SOUTH CENTRAL NEBRASKA

CITY           SKY/WX    TMP DP  RH WIND       PRES   REMARKS
GRAND ISLAND   CLEAR     26  20  77 SW5       29.85F WCI  20
AURORA         PTCLDY    24  19  82 SW5       29.86S WCI  18
HASTINGS       CLEAR     31  23  72 SW5       29.85F WCI  26
HEBRON         PTCLDY    26  20  77 CALM      29.89F
HOLDREGE       PTCLDY    34  25  71 W6        29.86F WCI  28
KEARNEY *      CLEAR     28  21  74 S8        29.86F WCI  20
YORK           PTCLDY    23  19  86 SW7       29.86F WCI  15
$$

NEZ011>018-030>034-042>045-281400-
NORTHEAST NEBRASKA

CITY           SKY/WX    TMP DP  RH WIND       PRES   REMARKS
NORFOLK        PTCLDY    25  19  78 S8        29.81F WCI  16
ALBION         CLEAR     24  19  78 CALM      29.82F
BLAIR          CLEAR     28  23  81 S9        29.88F WCI  19
COLUMBUS *     PTCLDY    25  18  74 S3        29.86F
FREMONT        PTCLDY    26  22  85 SE6       29.89S WCI  19
TEKAMAH        PTCLDY    21  17  84 SE6       29.89F WCI  13
WAYNE          PTCLDY    24  19  83 S5        29.84F WCI  18
$$

NEZ050>053-065>068-078-088>093-281400-
SOUTHEAST NEBRASKA

CITY           SKY/WX    TMP DP  RH WIND       PRES   REMARKS
LINCOLN        PTCLDY    24  19  81 SE5       29.91F WCI  18
OMAHA EPPLEY   PTCLDY    28  23  81 S12       29.92F WCI  18
BEATRICE       PTCLDY    29  23  78 S5        29.91F WCI  24
FALLS CITY     CLEAR     30  23  75 S6        29.97R WCI  24
NEBRASKA CITY  PTCLDY    27  21  80 S9        29.92F WCI  17
PLATTSMOUTH    CLEAR     27  22  80 SE10      29.91F WCI  17
$$

NEZ044-045-051>053-067-281400-
OMAHA AREA

CITY           SKY/WX    TMP DP  RH WIND       PRES   REMARKS
OMAHA EPPLEY   PTCLDY    28  23  81 S12       29.92F WCI  18
BLAIR          CLEAR     28  23  81 S9        29.88F WCI  19
FREMONT        PTCLDY    26  22  85 SE6       29.89S WCI  19
MILLARD        CLEAR     26  21  83 SE5       29.91F WCI  20
OFFUTT AFB     CLEAR     26  21  84 E7        29.91F WCI  18
PLATTSMOUTH    CLEAR     27  22  80 SE10      29.91F WCI  17
WAHOO          FAIR      22  18  86 S5        29.89F WCI  15
$$


USA.gov is the U.S. government's official web portal to all federal, state and local government web resources and services.